Aérodrome :
LOGIN :

S'inscrire | Disclaimer

   EN    FR    IT 

 










Légende :    VFR   VFR Marginal   IFR   IFR Intensif   IFR Très Intensif
Visi : 
Plafond : 
>= 8 km
>= 3000ft
5 à 8 km
1000 à 3000 ft
1500m à 5 km
500 à 1000 ft
800 à 1500m
200 à 500 ft
< 800m
< 200 ft
Symboles :   Orages  Brouillard  Fortes neiges  Fortes précipitations  Vent > 20 kt
SIGMETs :   Divers  Orages  Givrage  Turbulence  Onde Orograph.  Cendres Volcan.







- Altitude de l'aérodrome : 348 ft
- Code IATA : LDV
- Voir les cartes d'approche


LFRJ - Landivisiau

DERNIER METAR :
  • 240000Z AUTO 28005KT 8000 FEW003 BKN014 BKN022 13/13 Q1017

METARs EXPIRÉS :
  • 232330Z AUTO 28005KT 8000 SCT003 BKN013 BKN019 13/13 Q1017
  • 232300Z AUTO 28005KT 7000 SCT002 BKN011 BKN016 13/13 Q1017
  • 232230Z AUTO 29006KT 6000 OVC002 13/13 Q1017
  • 232200Z AUTO 31007KT 6000 OVC002 14/14 Q1017
  • 232130Z AUTO 31005KT 280V350 9999 OVC003 14/14 Q1017

Prévision TAF périmée.
Pas de NOTAMs connus pour ce terrain.



MET'MAP, la Météo Aéronautique d'un coup d'oeil ! - Copyright ORBIFLY Décembre 2007 - Disclaimer

ORBIFLY MET'MAP TEAM :

Programmation & Développement : Alexandra Zaïnal
Conception & Développement : Baudouin d'Aumeries
Co-Programmation & Développement : Marc-Olivier Méhu
Soutien technique & logistique : Manuel Goepfert

Contact : metmap@orbifly.com




SOURCES & CREDITS :

   NOAA